Temp
86 85 82 84 84 84 84 83 83 83 83 83 83 84 84 84 83 83 84 84 84 84 84 84 84 84 84 84 84 84 84 84 84 84 84 84 83 83 84 84 84 85 82
90 87 83 83 84 84 83 83 83 83 83 83 83 84 84 84 84 84 84 84 84 84 84 84 84 84 84 84 84 84 84 84 83 84 84 84 84 84 84 85 84 83 83
90 87 86 83 84 83 83 83 84 84 84 84 84 84 84 84 84 84 84 84 84 84 84 84 84 84 84 84 84 84 84 84 83 79 79 84 84 84 84 84 84 83 83
91 91 88 83 83 84 83 83 84 84 84 84 84 83 84 84 84 84 84 84 84 84 84 84 84 84 84 84 84 84 84 84 82 79 77 82 87 84 84 82 83 83 82
94 91 85 83 84 84 84 84 84 84 84 84 84 84 84 84 84 84 84 84 84 84 84 84 84 84 84 84 83 84 83 83 84 84 79 77 82 84 83 83 83 83 83
93 90 84 83 84 84 84 84 84 84 84 84 84 84 84 84 84 84 84 84 84 84 84 84 84 84 84 84 83 84 84 84 84 84 79 81 80 84 84 84 84 83 82
92 88 86 84 84 84 84 84 84 84 84 84 84 84 84 85 84 84 84 84 84 84 84 84 84 84 84 84 84 84 84 85 84 83 83 78 82 83 84 83 83 83 83
92 91 87 84 84 84 84 84 84 84 84 84 85 84 85 84 84 85 85 84 85 85 84 84 84 84 84 84 84 84 84 84 88 85 84 84 81 83 84 83 83 83 83
96 91 88 87 85 84 84 84 84 84 84 84 84 84 84 85 84 84 84 85 85 85 84 84 84 84 84 83 83 84 84 84 83 81 81 82 82 84 84 83 83 82 83
96 92 89 87 87 85 86 84 84 84 84 84 85 85 85 85 85 85 84 85 85 85 85 84 84 84 84 83 84 83 84 84 84 85 80 82 81 84 84 83 83 82 83
95 94 95 92 90 89 89 86 84 85 84 84 84 84 83 82 81 84 85 84 85 84 84 85 84 84 84 84 84 84 84 82 84 81 78 80 81 84 84 83 83 83 82
94 92 97 96 94 93 93 84 86 87 86 85 86 83 82 81 81 86 85 85 85 85 85 85 84 84 84 85 84 84 83 83 84 87 84 81 82 84 84 83 82 82 82
94 95 93 91 94 89 87 89 89 90 89 89 83 83 81 83 82 84 84 85 83 84 85 81 83 84 82 82 84 84 84 79 84 86 83 81 81 84 84 83 83 82 82
95 96 89 97 91 88 87 92 90 86 90 88 85 88 80 80 79 82 81 81 80 78 81 80 79 77 77 80 79 78 84 80 82 81 82 82 81 82 84 83 83 83 83
93 96 95 93 91 93 92 91 87 88 93 90 86 78 82 79 78 80 74 81 80 81 80 81 80 80 77 77 81 83 85 79 81 80 75 83 82 82 83 83 83 83 83
94 95 98 95 90 92 91 89 89 92 86 87 85 82 80 87 80 78 78 81 81 80 82 79 79 79 78 75 75 76 78 80 81 79 78 79 82 82 82 83 83 83 83
95 96 95 95 93 90 89 90 90 92 95 92 85 87 87 90 83 84 83 81 79 76 81 80 79 78 77 80 77 76 78 79 82 80 81 75 79 82 83 83 82 83 83
93 91 93 97 94 90 88 88 90 90 90 90 93 91 81 76 80 84 84 82 74 81 79 79 78 75 75 73 75 76 78 77 81 81 82 83 75 80 81 82 82 82 83
95 91 92 94 95 89 89 89 89 86 90 85 89 85 79 75 76 84 84 78 81 81 82 79 79 78 75 74 75 76 77 80 83 87 83 81 85 79 77 81 81 81 83
95 92 90 93 92 86 88 87 89 89 90 89 87 88 82 78 86 85 82 81 77 81 83 83 80 79 78 76 82 83 82 83 84 84 76 79 76 78 77 77 79 81 81
93 91 90 89 89 88 87 86 86 86 87 85 80 79 75 91 87 87 83 85 84 83 83 81 82 79 80 80 75 79 81 83 83 79 76 74 75 75 76 78 74 76 83
90 89 87 87 87 89 88 87 88 84 83 84 78 80 85 88 86 84 85 81 84 82 80 82 81 78 79 79 75 76 73 74 80 84 77 77 77 77 75 76 76 76 80
90 88 87 87 87 87 88 88 88 88 83 85 87 87 88 88 86 84 85 84 82 81 80 80 79 77 76 77 81 73 69 68 73 79 77 79 78 75 75 75 75 76 77
95 91 89 87 87 87 88 87 86 84 81 84 85 84 85 85 84 84 84 84 83 81 79 79 81 77 76 74 76 80 78 76 70 69 76 78 78 77 77 76 76 76 76
98 95 92 87 87 86 86 85 86 84 82 86 80 83 84 83 85 84 83 83 82 82 81 78 78 77 77 75 74 75 74 77 77 72 70 74 77 77 78 77 76 75 76
99 96 93 87 85 86 86 86 84 84 82 78 83 81 78 82 85 83 84 82 82 80 80 79 80 78 76 77 76 74 74 72 72 71 70 71 74 77 76 78 76 75 75
MSLP
1010.80 1011.54 1012.01 1012.16 1012.36 1012.59 1012.72 1012.88 1013.15 1013.44 1013.54 1013.83 1014.01 1014.06 1014.26 1014.33 1014.68 1014.81 1015.05 1015.07 1014.99 1014.94 1014.95 1014.99 1015.09 1015.18 1015.17 1015.27 1015.40 1015.62 1015.99 1015.96 1015.90 1015.98 1016.06 1016.21 1016.71 1016.81 1016.73 1016.69 1016.60 1016.92 1017.40
1010.47 1011.37 1012.07 1012.27 1012.53 1012.75 1013.00 1013.24 1013.48 1013.73 1013.86 1014.12 1014.25 1014.32 1014.47 1014.72 1014.96 1015.23 1015.24 1015.22 1015.13 1015.11 1015.14 1015.14 1015.24 1015.33 1015.49 1015.62 1015.65 1015.74 1015.92 1016.00 1016.05 1016.21 1016.31 1016.62 1016.83 1017.09 1016.82 1016.59 1016.92 1017.26 1017.67
1010.36 1011.44 1011.95 1012.38 1012.63 1013.00 1013.17 1013.47 1013.69 1013.86 1014.04 1014.33 1014.33 1014.38 1014.72 1014.95 1015.21 1015.45 1015.35 1015.38 1015.36 1015.41 1015.37 1015.30 1015.34 1015.48 1015.73 1015.94 1016.07 1016.15 1016.18 1016.25 1016.35 1015.80 1016.16 1016.41 1016.78 1017.22 1017.13 1017.11 1017.18 1017.54 1017.82
1010.32 1011.01 1011.88 1012.54 1012.80 1013.12 1013.42 1013.58 1013.75 1014.03 1014.30 1014.39 1014.43 1014.71 1014.95 1015.23 1015.38 1015.39 1015.42 1015.49 1015.62 1015.69 1015.67 1015.52 1015.52 1015.58 1015.84 1016.11 1016.25 1016.32 1016.39 1016.55 1016.48 1016.28 1016.06 1016.35 1016.51 1017.36 1017.52 1017.64 1017.53 1017.76 1017.99
1009.83 1010.86 1012.12 1012.58 1012.94 1013.20 1013.39 1013.67 1014.01 1014.23 1014.45 1014.55 1014.68 1014.95 1015.24 1015.38 1015.45 1015.53 1015.60 1015.70 1015.82 1015.92 1015.87 1015.86 1015.80 1015.76 1015.85 1016.15 1016.31 1016.34 1016.45 1016.73 1016.79 1016.48 1016.45 1016.42 1016.58 1017.29 1017.54 1017.80 1017.92 1018.03 1018.10
1010.14 1011.33 1012.41 1012.59 1012.92 1013.18 1013.45 1013.81 1014.19 1014.44 1014.67 1014.76 1014.95 1015.21 1015.38 1015.44 1015.52 1015.62 1015.75 1015.88 1015.99 1016.09 1016.11 1016.11 1016.11 1016.05 1016.04 1016.19 1016.40 1016.43 1016.42 1016.64 1016.70 1016.37 1016.83 1016.61 1016.79 1017.35 1017.44 1017.80 1017.95 1018.16 1018.38
1010.23 1011.66 1012.35 1012.72 1012.95 1013.20 1013.60 1013.98 1014.26 1014.56 1014.78 1014.92 1015.11 1015.32 1015.45 1015.54 1015.65 1015.71 1015.84 1015.95 1016.09 1016.11 1016.22 1016.25 1016.28 1016.34 1016.37 1016.39 1016.41 1016.43 1016.47 1016.48 1016.39 1016.45 1016.33 1016.68 1017.17 1017.20 1017.43 1017.78 1017.99 1018.30 1018.52
1010.20 1011.31 1012.44 1012.95 1013.16 1013.46 1013.77 1014.06 1014.34 1014.65 1014.83 1014.94 1015.07 1015.26 1015.40 1015.60 1015.67 1015.77 1015.84 1015.96 1016.09 1016.22 1016.30 1016.38 1016.41 1016.49 1016.52 1016.53 1016.53 1016.51 1016.41 1016.44 1016.13 1015.92 1016.17 1016.58 1017.13 1017.07 1017.43 1017.76 1017.98 1018.18 1018.43
1009.85 1011.37 1012.29 1012.87 1013.36 1013.68 1013.95 1014.22 1014.51 1014.69 1014.84 1014.95 1015.07 1015.23 1015.36 1015.46 1015.61 1015.74 1015.82 1015.88 1016.03 1016.16 1016.29 1016.36 1016.44 1016.53 1016.55 1016.58 1016.57 1016.50 1016.36 1016.33 1016.55 1016.07 1016.86 1016.97 1017.20 1017.17 1017.47 1017.77 1018.13 1018.36 1018.39
1009.76 1011.28 1011.96 1012.77 1013.24 1013.64 1014.03 1014.28 1014.52 1014.72 1014.91 1015.03 1015.10 1015.23 1015.33 1015.34 1015.46 1015.58 1015.72 1015.84 1015.98 1016.11 1016.21 1016.34 1016.37 1016.48 1016.49 1016.53 1016.47 1016.29 1016.20 1016.36 1016.36 1016.18 1016.54 1016.37 1016.86 1016.99 1017.33 1017.69 1017.98 1018.18 1018.48
1009.40 1010.54 1011.27 1012.10 1012.71 1012.97 1013.50 1014.09 1014.47 1014.69 1014.84 1014.91 1014.96 1015.12 1015.25 1015.25 1015.21 1015.32 1015.41 1015.58 1015.80 1016.01 1016.12 1016.12 1016.26 1016.34 1016.37 1016.31 1016.20 1016.11 1016.01 1016.13 1016.10 1015.92 1016.81 1016.24 1016.89 1016.63 1017.08 1017.59 1017.76 1018.04 1018.32
1009.00 1009.90 1010.40 1010.97 1011.58 1012.14 1012.70 1013.70 1013.83 1014.15 1014.26 1014.34 1014.35 1014.75 1015.00 1015.01 1015.00 1014.90 1015.02 1015.16 1015.31 1015.52 1015.74 1015.91 1016.06 1016.13 1016.19 1015.97 1015.73 1015.82 1015.86 1015.78 1015.53 1015.57 1016.23 1016.33 1016.39 1016.23 1016.62 1017.23 1017.59 1017.84 1018.10
1008.96 1009.17 1009.81 1010.70 1010.92 1011.94 1012.82 1012.91 1012.96 1013.17 1013.28 1013.42 1013.98 1014.15 1014.52 1014.53 1014.44 1014.42 1014.34 1014.48 1014.91 1015.13 1015.24 1015.45 1015.69 1015.72 1015.71 1015.62 1015.34 1015.40 1015.41 1015.46 1015.38 1015.14 1015.54 1015.99 1016.41 1016.19 1016.26 1016.83 1017.18 1017.53 1017.86
1008.73 1009.11 1009.93 1010.10 1010.88 1011.73 1012.11 1012.11 1012.35 1012.71 1012.61 1012.91 1013.25 1013.68 1014.40 1014.38 1014.05 1014.55 1014.91 1014.45 1014.43 1014.95 1015.15 1015.42 1015.64 1015.72 1015.78 1015.47 1015.56 1015.35 1015.02 1015.26 1015.27 1015.20 1015.75 1015.89 1015.86 1015.97 1016.10 1016.46 1016.85 1017.15 1017.49
1008.73 1008.93 1009.57 1010.28 1010.87 1011.29 1011.59 1011.70 1012.11 1012.31 1011.94 1012.72 1013.26 1013.89 1014.04 1013.78 1014.08 1015.02 1014.18 1014.38 1013.89 1014.31 1014.81 1014.93 1015.05 1015.35 1015.66 1015.56 1015.35 1014.91 1014.71 1015.10 1015.01 1015.10 1015.61 1015.65 1015.74 1015.97 1015.99 1016.17 1016.47 1016.81 1017.07
1008.63 1008.99 1009.40 1010.17 1011.13 1011.52 1011.91 1012.06 1012.03 1011.68 1012.11 1012.26 1012.76 1013.12 1013.51 1013.09 1013.54 1014.00 1014.34 1013.36 1013.34 1013.74 1013.93 1014.43 1014.64 1015.01 1015.31 1015.43 1015.44 1015.41 1015.07 1014.70 1014.77 1014.95 1015.05 1015.30 1015.39 1015.44 1015.70 1015.93 1016.18 1016.43 1016.71
1008.47 1008.88 1009.41 1010.22 1011.05 1011.79 1012.21 1012.40 1012.29 1011.92 1011.50 1011.46 1012.06 1012.53 1013.11 1013.35 1013.59 1013.47 1013.55 1013.54 1013.36 1013.49 1013.58 1014.22 1014.39 1014.60 1014.92 1014.86 1015.18 1014.96 1014.88 1014.66 1014.38 1014.36 1014.41 1014.81 1014.85 1014.93 1015.14 1015.35 1015.71 1015.90 1016.17
1008.07 1008.67 1009.37 1009.97 1010.62 1011.73 1012.03 1012.27 1012.22 1012.01 1011.47 1011.21 1011.46 1012.53 1013.71 1014.67 1014.32 1013.67 1013.55 1013.29 1013.79 1012.81 1013.29 1014.09 1014.27 1014.49 1014.60 1014.72 1014.69 1014.67 1014.63 1014.50 1014.23 1014.02 1013.78 1013.72 1014.02 1014.02 1014.28 1014.50 1014.89 1015.20 1015.47
1008.02 1008.68 1009.34 1009.82 1010.15 1011.15 1011.70 1011.97 1011.96 1011.71 1011.40 1011.28 1011.73 1012.83 1013.58 1014.16 1014.40 1013.64 1013.34 1013.57 1013.01 1012.73 1013.48 1013.91 1014.28 1014.54 1014.45 1014.39 1014.23 1013.95 1013.89 1013.75 1013.36 1012.76 1012.61 1012.84 1012.78 1013.00 1013.34 1013.40 1013.99 1014.44 1014.67
1007.94 1008.66 1009.39 1009.73 1010.00 1010.75 1011.44 1011.90 1011.81 1011.51 1011.31 1011.47 1012.38 1013.23 1013.47 1014.23 1012.71 1013.01 1013.19 1013.17 1013.09 1013.05 1013.24 1013.54 1014.04 1013.94 1013.84 1013.91 1013.52 1012.98 1012.87 1012.64 1012.44 1012.25 1012.77 1012.63 1013.04 1012.97 1013.06 1013.66 1013.31 1013.59 1013.82
1007.98 1008.65 1009.27 1009.68 1010.09 1010.65 1011.22 1011.68 1011.69 1011.34 1011.48 1012.19 1013.03 1014.26 1013.74 1013.36 1012.83 1012.17 1012.82 1012.78 1012.76 1012.96 1013.25 1013.57 1013.60 1013.46 1013.33 1012.87 1013.45 1012.83 1012.41 1011.96 1012.10 1012.26 1012.01 1012.43 1012.60 1012.35 1012.79 1012.69 1013.00 1012.89 1013.15
1007.46 1008.53 1009.23 1009.73 1010.17 1010.54 1010.94 1011.14 1011.14 1011.20 1011.75 1012.50 1012.46 1013.47 1012.85 1013.02 1012.26 1011.93 1012.41 1012.75 1013.04 1013.24 1013.65 1013.58 1013.49 1013.61 1013.44 1013.25 1013.27 1013.01 1012.82 1012.58 1012.33 1012.03 1012.40 1012.38 1012.20 1012.04 1012.21 1012.23 1012.03 1012.52 1012.55
1006.72 1007.85 1008.83 1009.51 1009.97 1010.53 1010.73 1011.00 1011.05 1011.14 1011.53 1012.22 1012.30 1012.35 1012.33 1012.12 1011.79 1012.04 1012.36 1013.02 1013.42 1013.55 1013.72 1013.95 1014.00 1014.00 1013.78 1013.43 1013.05 1013.46 1013.44 1013.49 1013.14 1012.33 1012.31 1012.06 1011.91 1011.80 1011.93 1011.88 1011.82 1012.24 1012.02
1005.59 1007.08 1008.05 1008.93 1009.62 1010.22 1010.57 1010.71 1011.00 1011.22 1011.39 1011.61 1011.81 1012.14 1012.03 1011.85 1011.98 1012.38 1012.79 1013.16 1013.59 1013.86 1014.02 1014.27 1014.37 1014.36 1014.21 1014.02 1013.54 1013.37 1013.44 1013.39 1013.31 1012.96 1012.38 1011.89 1011.60 1011.44 1011.33 1011.45 1011.63 1011.56 1011.45
1004.59 1005.92 1007.24 1008.40 1009.07 1009.75 1010.39 1010.55 1010.76 1011.18 1011.26 1011.10 1011.44 1011.64 1011.84 1012.20 1012.12 1012.58 1013.03 1013.41 1013.85 1014.00 1014.29 1014.51 1014.64 1014.67 1014.62 1014.53 1014.43 1014.09 1013.71 1013.19 1013.07 1013.17 1012.73 1012.06 1011.52 1011.24 1011.23 1011.28 1011.25 1010.93 1010.72
1003.72 1005.12 1006.38 1007.72 1008.71 1009.33 1009.96 1010.36 1010.74 1010.73 1010.95 1011.11 1011.64 1012.43 1012.97 1013.13 1012.87 1012.96 1013.20 1013.60 1013.79 1014.21 1014.44 1014.66 1014.69 1014.74 1014.79 1014.67 1014.67 1014.53 1014.25 1014.04 1013.50 1013.33 1013.10 1012.54 1012.00 1011.30 1011.18 1011.34 1011.40 1011.43 1011.29
Wind_Speed
15 14 13 12 13 13 15 15 15 14 15 14 13 14 14 14 12 12 10 10 9 9 8 8 8 8 9 11 12 13 14 13 14 15 15 15 11 9 9 10 14 13 13
19 17 14 14 14 14 14 14 13 13 14 12 12 12 12 11 10 9 9 9 9 8 8 8 6 8 8 10 11 12 12 11 12 13 13 11 10 8 7 5 8 14 13
20 17 16 14 14 14 13 13 12 14 13 11 11 11 10 10 9 7 8 8 8 9 7 8 8 10 8 10 10 11 10 11 15 12 3 6 8 7 10 14 16 14 13
19 17 15 13 15 15 14 12 13 12 11 11 12 10 10 8 8 7 9 9 9 8 8 9 10 9 9 8 9 8 8 10 16 12 8 6 10 10 10 11 13 13 13
19 18 15 15 13 14 13 12 12 11 11 10 11 10 7 7 7 8 8 8 7 7 7 8 7 8 7 8 7 6 3 4 7 12 7 3 6 10 11 10 11 10 11
21 19 15 15 15 14 13 12 11 10 9 9 9 9 7 7 8 8 8 8 6 8 7 7 6 6 6 8 7 4 1 2 4 6 7 8 6 12 11 5 11 10 12
21 17 15 15 15 14 13 11 12 10 9 8 8 9 7 7 7 8 7 8 5 6 6 5 6 5 5 5 4 1 2 5 6 1 8 8 8 12 11 10 10 10 9
19 18 15 14 14 12 12 12 10 9 9 8 7 7 7 7 7 6 6 6 4 5 5 4 5 5 4 3 1 2 5 6 8 4 8 8 11 13 12 11 10 10 10
19 17 14 13 12 12 11 10 10 8 7 8 7 6 7 6 6 6 6 5 4 4 5 6 5 4 4 4 4 5 8 8 6 2 6 3 12 14 12 10 9 9 10
20 16 12 12 12 10 10 10 10 8 7 5 6 5 5 6 6 6 6 5 5 4 5 5 5 5 6 6 8 9 10 9 7 4 6 5 15 15 13 11 11 10 9
16 17 15 15 12 12 12 11 10 8 7 7 7 7 4 3 5 7 7 8 6 5 4 5 7 8 8 10 13 13 13 3 5 4 3 18 16 17 15 12 11 10 10
14 16 15 16 14 13 11 11 10 10 9 8 8 8 5 5 4 2 6 11 10 9 7 7 8 9 9 7 7 13 5 7 6 2 6 16 17 17 17 13 12 12 11
12 8 11 13 11 17 7 8 7 7 6 7 9 9 7 4 2 3 3 5 5 8 4 6 5 5 4 6 6 6 8 4 4 2 10 16 14 14 17 15 14 14 14
12 12 9 13 9 14 11 8 5 4 7 5 6 4 5 4 5 2 3 3 3 3 3 2 2 3 4 8 7 6 8 2 3 1 5 15 14 14 15 15 14 15 16
10 9 11 13 6 1 2 2 3 7 3 7 4 7 4 6 4 3 7 7 4 4 5 5 5 4 4 5 8 8 7 4 5 3 3 12 11 12 13 15 16 17 18
12 11 10 12 9 5 2 5 4 2 6 6 7 9 12 4 4 6 7 4 2 2 5 4 3 3 3 3 6 5 9 5 4 6 4 4 11 12 13 16 16 17 19
12 13 11 9 12 7 6 3 4 4 6 4 6 8 6 1 4 4 3 2 3 6 5 2 4 4 5 5 8 4 5 7 6 6 6 4 6 12 14 17 18 18 19
10 13 9 11 15 10 8 7 6 5 5 2 2 4 11 11 16 4 4 1 4 4 5 2 3 4 4 4 4 5 5 6 9 9 8 9 6 8 12 17 18 20 20
9 12 8 8 12 14 7 5 6 6 4 3 2 6 8 9 16 4 5 7 6 4 5 3 2 2 3 2 4 5 5 8 10 11 14 12 12 10 7 17 19 20 23
9 10 9 8 5 12 7 4 4 5 4 2 1 5 2 6 7 4 1 3 3 3 3 2 2 3 4 5 6 5 6 8 9 9 5 5 8 7 5 10 9 12 23
12 11 10 9 6 8 8 7 6 6 4 2 9 7 19 2 4 4 3 2 3 4 3 3 2 5 4 4 3 5 3 6 4 6 7 5 5 8 9 10 5 6 11
17 12 10 7 8 6 5 6 6 3 3 5 6 11 0 1 4 7 3 4 5 4 5 3 3 3 3 4 2 3 4 3 4 3 4 3 3 3 6 7 2 7 11
19 18 14 11 8 7 7 5 3 1 3 2 3 2 2 2 5 5 2 5 5 4 4 4 6 6 4 3 2 2 2 1 5 5 4 4 5 4 3 4 8 10 9
16 19 17 14 12 10 8 6 6 4 3 4 3 3 2 4 4 4 5 5 4 3 6 6 6 5 5 5 5 1 3 3 2 3 3 2 2 4 4 3 4 6 5
17 15 15 16 13 11 9 8 6 6 6 6 6 7 5 4 2 7 6 5 4 4 5 5 4 5 5 5 6 6 7 3 3 2 6 6 3 1 2 1 2 2 2
17 16 16 16 13 12 11 8 6 6 7 2 6 4 4 4 4 6 6 4 4 5 4 4 4 5 3 3 3 6 6 5 3 3 4 5 7 2 3 3 3 2 1
Wind_Direction
123 124 132 126 120 114 111 110 107 110 104 104 101 100 99 97 96 95 102 105 103 95 86 86 88 85 78 79 81 86 88 90 88 85 88 95 98 107 113 125 134 105 107
128 128 137 127 120 118 115 115 114 114 113 114 110 103 99 100 103 108 104 101 100 94 87 95 92 88 89 87 88 90 90 93 91 81 99 97 98 96 85 174 109 114 115
123 128 128 128 122 119 118 128 125 122 120 122 114 104 108 104 105 113 103 99 100 87 95 96 88 94 88 92 93 97 103 105 96 110 260 145 109 102 91 94 110 112 120
133 130 130 123 126 129 130 127 121 122 121 116 105 102 103 112 108 104 94 90 90 92 94 84 89 93 96 94 91 98 112 124 127 154 217 218 133 124 107 105 111 118 122
139 116 128 130 128 129 123 116 115 113 112 109 110 111 119 124 121 102 93 90 95 93 91 93 93 99 104 102 104 102 137 130 161 169 182 289 121 127 122 123 124 131 141
116 121 134 130 126 124 120 122 129 125 125 123 120 123 115 105 107 103 99 102 100 91 101 102 103 102 106 106 118 103 7 8 277 258 82 89 86 130 123 156 114 121 121
115 127 130 131 130 128 131 129 125 121 127 122 108 140 127 113 105 109 115 99 121 115 117 119 114 103 110 125 124 126 307 308 284 270 118 132 128 135 134 130 129 131 134
126 129 136 132 129 140 141 137 133 141 136 118 112 110 120 123 122 117 121 123 128 131 131 136 137 139 146 143 131 268 289 300 322 348 135 146 144 141 150 146 149 145 146
133 127 136 140 140 145 141 143 140 142 131 137 136 140 154 137 151 143 148 147 148 151 141 155 163 174 186 187 222 265 278 287 306 338 61 131 157 150 150 152 152 150 155
126 141 151 145 151 159 156 153 150 136 140 152 164 174 181 177 177 181 174 184 181 186 182 181 191 202 218 228 231 238 258 283 256 241 197 170 163 155 155 157 165 169 169
140 148 160 157 164 164 151 148 147 155 169 185 196 196 198 219 195 209 196 170 192 198 216 219 215 228 233 238 243 244 247 232 248 260 236 149 169 157 158 165 178 180 179
140 160 162 162 162 170 157 154 166 175 189 195 195 167 191 221 180 180 207 188 198 213 219 224 236 248 250 256 219 236 244 247 237 168 161 165 172 159 158 174 182 190 193
152 165 153 146 158 129 140 189 174 179 190 187 162 168 188 219 171 223 177 190 195 215 225 192 227 240 261 235 260 213 230 267 265 325 154 166 177 168 166 179 188 192 200
170 155 193 143 139 144 174 184 149 213 183 146 177 190 143 222 195 237 316 180 191 166 208 156 220 270 300 302 319 208 237 191 224 334 164 176 183 178 182 183 197 198 202
187 177 151 117 123 70 71 238 170 195 150 152 143 62 218 212 175 144 219 260 178 169 202 200 200 209 243 283 294 308 295 226 168 201 155 184 192 189 192 191 201 208 207
180 172 165 145 134 168 197 322 329 349 132 165 155 175 223 188 181 213 211 237 207 220 230 227 223 183 206 251 275 273 288 284 212 190 216 199 215 211 207 212 211 211 215
180 160 163 177 150 177 187 195 280 293 238 166 178 179 203 44 80 315 315 306 335 214 225 252 258 219 231 233 245 234 254 275 269 225 214 221 239 239 235 223 216 215 215
176 150 163 189 154 176 181 163 217 238 277 269 95 125 75 10 341 267 255 234 182 271 110 74 16 307 252 242 272 246 228 234 256 254 235 227 204 213 223 226 221 218 216
175 146 178 185 169 159 175 186 232 236 233 240 177 106 103 157 236 262 284 56 299 53 67 75 345 322 301 238 251 238 227 225 237 239 220 222 232 207 214 212 213 216 219
160 152 179 167 186 151 152 204 223 254 237 232 23 50 167 213 193 205 10 83 360 109 129 104 293 252 254 224 254 274 223 225 233 246 360 205 262 295 234 239 211 213 214
157 173 176 173 179 153 155 185 222 223 224 70 66 53 262 195 169 106 26 35 266 15 339 40 269 324 289 246 250 302 330 260 32 143 162 164 230 231 251 260 194 197 214
162 173 168 206 166 177 188 193 208 222 97 116 129 216 349 52 63 77 15 56 35 6 61 5 347 346 346 34 45 313 347 310 3 348 59 340 325 285 228 255 255 246 228
169 169 175 186 178 181 219 202 236 241 122 110 170 136 130 58 67 49 59 49 16 316 48 6 29 15 337 313 13 122 6 337 337 4 12 359 338 293 216 246 195 239 249
175 170 174 178 176 180 217 206 201 208 224 205 206 121 68 119 109 169 75 56 27 357 49 28 38 4 351 350 354 337 205 231 250 315 290 277 299 314 301 255 207 219 228
175 172 162 174 177 183 198 241 170 212 204 191 123 146 110 113 194 88 78 62 20 61 61 57 39 22 16 10 0 349 329 331 344 332 330 326 320 209 323 14 340 312 280
167 167 167 165 180 185 183 212 244 209 237 84 151 123 157 182 134 104 103 99 72 67 41 80 355 81 33 35 1 343 352 334 340 330 334 332 333 339 94 86 58 22 337